Погода в Чипате

Замбия     13°38′05″S   32°38′42″E
темп.,
°C
ветер,
м/с
пор.,
м/с
влажн.,
%
обл.,
%
осадки,
мм/ч
давл.,
гПа
погр.,
м
26 февраля, пт
пт2623:00+19зюз1195100 0.3 101227
02:00+18сз2294100 0.4 101147
05:00+18зсз1297100 1.3 101084
08:00+20зсз129293 2.8 1013227
11:00+24зсз348236 2.3 1010718
14:00+24зсз458536 6.8 1008800
17:00+22з3790100 2.9 1007570
20:00+19юз2797100 4.3 1011288
27 февраля, сб
сб2723:00+18ююз31097100 0.5 1011373
02:00+18ю1298100 0.7 101087
05:00+18юв119495 0.4 101026
08:00+20зсз239398 1.0 1013151
11:00+21зсз469099 2.4 1012593
14:00+21зсз468095 3.5 1010681
17:00+20вюв0188100 0.1 1008155
20:00+18юв229691 0.1 101174
28 февраля, вс
вс2823:00+18юв1297100 0.1 101284
02:00+18вюв2394100 0.1 101084
05:00+17вюв1296100 0.1 101187
08:00+19в139399 0.3 1012227
11:00+24св137857 1.7 1011801
14:00+24с128358 7.1 1007689
17:00+22ююв229196 4.5 1007285
20:00+19ююв129698 10.2 101049
1 марта, пн
пн123:00+18юв2499100 9.8 1012191
02:00+18всв3898100 25.8 1010348
05:00+18всв2799100 11.9 1011334
08:00+17всв2799100 22.7 1013360
11:00+18ссв2698100 16.3 1013403
14:00+19с1297100 22.6 1012181
17:00+18юв1199100 3.1 101179
20:00+17юв1299100 3.1 101369
2 марта, вт
вт223:00+17ююв1399100 0.0 1014198
02:00+17ююв1299100 0.1 1013114
05:00+17ю1299100 1.5 1014128
08:00+17ююв1199100 2.6 1015116
11:00+18ююв129699 0.4 1014212
14:00+22ююз128988 3.1 1011479
17:00+20ю239382 1.8 1010425
20:00+17ююв229960 2.0 101269